Regional Weather Roundup
Issued by NWS

Home | Current Version | Previous Version | Graphics & Text | Print | Product List | Glossary On
Versions: 1 2 3 4 5 6 7 8 9 10 11 12 13 14 15 16 17 18 19 20 21 22 23 24 25 26 27 28 29 30 31 32 33 34 35 36 37 38 39 40 41 42 43 44 45 46 47 48 49 50
903
ASUS43 KLOT 292008
RWRIL

ILLINOIS REGIONAL WEATHER ROUNDUP
NATIONAL WEATHER SERVICE CHICAGO/ROMEOVILLE IL
300 PM CDT WED MAR 29 2017

NOTE: "FAIR" INDICATES FEW OR NO CLOUDS BELOW 12,000 FEET WITH NO
SIGNIFICANT WEATHER AND/OR OBSTRUCTIONS TO VISIBILITY.

* THESE STATIONS ARE NOT UNDER NWS QUALITY CONTROL. THEY ALSO MAY NOT
  REPORT WEATHER SUCH AS PRECIPITATION OR FOG.

ILZ001-002-007-009-015-016-024-292100-
NORTHWEST ILLINOIS

CITY           SKY/WX    TMP DP  RH WIND       PRES   REMARKS
MOLINE         CLOUDY    49  41  74 E23       30.02F
STERLING*      CLOUDY    50  40  68 E26G35    30.05F
SAVANNA*       CLOUDY    49  36  61 E20G25    30.08F
$$

ILZ003-004-008-010-011-017-018-292100-
NORTH CENTRAL ILLINOIS

CITY           SKY/WX    TMP DP  RH WIND       PRES   REMARKS
ROCKFORD       CLOUDY    48  34  58 E15G24    30.15F
FREEPORT*      CLOUDY    46  36  66 E21       30.14F
ROCHELLE*      CLOUDY    46  39  75 E17       30.12F
DE KALB*       CLOUDY    46  37  71 E14G20    30.15F
PERU*          CLOUDY    50  40  67 E18G26    30.08F
$$

ILZ005-006-012>014-019>023-292100-
NORTHEAST ILLINOIS

CITY           SKY/WX    TMP DP  RH WIND       PRES   REMARKS
CHICAGO-OHARE  CLOUDY    45  35  68 NE13      30.19F
CHICAGO-MIDWAY CLOUDY    46  35  65 N15G24    30.18F
AURORA         CLOUDY    49  36  61 NE20      30.15F
LANSING*       CLOUDY    45  38  76 NE10      30.18F
JOLIET*        CLOUDY    50  38  62 NE10G18   30.17R
WAUKEGAN       CLOUDY    43  36  76 NE9       30.22F
DUPAGE AIRPORT CLOUDY    45  37  73 NE18      30.16F
KANKAKEE*      CLOUDY    55  35  47 E15       30.15F
WHEELING       CLOUDY    43  35  73 NE12      30.22F
MORRIS*        LGT RAIN  50  39  66 E10       30.14S
ROMEOVILLE*    CLOUDY    47  39  73 NE16      30.17S
NORTHERLY ISL    N/A     41  36  82 MISG        N/A
$$

LMZ740>746-292100-
SOUTHERN LAKE MICHIGAN

STATION/POSITION SKY/WX   TEMP    WIND        PRES    VSBY  WAVE
                          AIR SEA DIR/SP/G                  HT/PER
                          (F)     (DEG/KT/KT) (MB)    (MI)  (FT/S)
HARRISON CRIB              40      30/ 15/ 16   N/A
BURNHAM HARBOR             41     360/ 10/ 12   N/A
CALUMET HARBOR             41      10/ 14/ 18 1021.4F
BURNS HARBOR               42      60/  9/ 10 1022.7F
MICHIGAN CITY              41      30/  9/ 10   N/A
$$

ILZ025>027-034>036-040-047-049-050-058-095>099-292100-
WEST-CENTRAL ILLINOIS

CITY           SKY/WX    TMP DP  RH WIND       PRES   REMARKS
QUINCY         LGT RAIN  52  48  86 E22G32    29.87F
GALESBURG*     LGT RAIN  47  44  87 E17G28    29.96F
MACOMB*        CLOUDY    48  47  93 E24G33    29.96F
JACKSONVILLE*  CLOUDY    51  48  89 E29G38    29.92F
PITTSFIELD*    CLOUDY    53  49  88 E16G23    29.92S
$$

ILZ028>032-037-038-041>044-048-051>054-059>061-292100-
CENTRAL ILLINOIS

CITY           SKY/WX    TMP DP  RH WIND       PRES   REMARKS
PONTIAC        LGT RAIN  51  45  80 E18       30.09F
BLOOMINGTON    LGT RAIN  51  45  79 E21G28    30.05F
DECATUR        CLOUDY    52  48  86 E16       30.01F
PEORIA         LGT RAIN  50  43  77 E17G28    30.01F
LACON*         CLOUDY    49  42  75 E13G21    30.05F
LINCOLN*       CLOUDY    52  49  90 E14G23    30.00F
SPRINGFIELD    CLOUDY    52  50  93 E23G36    29.95F FOG
TAYLORVILLE    CLOUDY    54  48  82 E21G31    29.96F
$$

ILZ033-039-045-046-055>057-062-063-292100-
EAST-CENTRAL ILLINOIS

CITY           SKY/WX    TMP DP  RH WIND       PRES   REMARKS
CHAMPAIGN      LGT RAIN  53  45  74 E15       30.07F
RANTOUL*       RAIN      55  43  64 E16       30.10F
MATTOON        CLOUDY    55  52  89 E14       30.01F
PARIS*         CLOUDY    58  45  61 CALM      30.10R
$$

ILZ079-100>102-292100-
SOUTHWEST ILLINOIS

CITY           SKY/WX    TMP DP  RH WIND       PRES   REMARKS
ALTON          CLOUDY    59  52  77 E21G28    29.89F
BELLEVILLE     CLOUDY    64  55  72 NE15      29.87F
CAHOKIA*       CLOUDY    64  53  67 E17G25    29.88F
SPARTA*        CLOUDY    65  56  72 E14G21    29.90F
$$

ILZ064>066-069>071-074>076-080>082-084>086-088>090-092>094-292100-
SOUTH-CENTRAL ILLINOIS

CITY           SKY/WX    TMP DP  RH WIND       PRES   REMARKS
CARBONDALE     PTSUNNY   69  57  65 SE17      29.88F
CAIRO*         CLOUDY    74  61  65 E14       29.86F
EFFINGHAM*     CLOUDY    60  51  73 NE10G21   30.01F
MARION         CLOUDY    73  55  53 SE15      29.91F
MT. VERNON     CLOUDY    67  53  61 E16       29.93F
CENTRALIA*     CLOUDY    66  54  65 E14G20    29.92F
SALEM*         CLOUDY    65  52  64 E13G20    29.95F
METROPOLIS*    CLOUDY    72  58  60 E14G21    29.90F
$$

ILZ067-068-072-073-078-083-087-091-292100-
SOUTHEAST ILLINOIS

CITY           SKY/WX    TMP DP  RH WIND       PRES   REMARKS
LAWRENCEVILLE  CLOUDY    63  52  67 E21       30.01F
FLORA*         CLOUDY    66  53  63 E13       29.97F
FAIRFIELD*     CLOUDY    66  54  63 E10       29.95F
HARRISBURG*    CLOUDY    69  58  66 E18       29.93F
ROBINSON*      PTSUNNY   57  49  74 E15       30.06F
CARMI*         MOSUNNY   68  55  62 E20       29.95F
$$

ABBREVIATIONS USED IN REMARKS
   TC - TEMPERATURE IN CELSIUS
  WCI - WIND CHILL INDEX
   HX - HEAT INDEX
  VSB - VISIBILITY
$$





USA.gov is the U.S. government's official web portal to all federal, state and local government web resources and services.